When you browse on this site, cookies collect data to enhance your experience and personalize the content and advertising you see.
Visit our Privacy Policy to learn more. By continuing to use the site, you agree to this use of cookies and data.
  • In Romania
  • List of Countries
  • For 7 days
  • Water Temperature
  • Satellite Maps
  • Weather Map
  • Weather Widgets
  • user-avatar
    Login

    Hourly Weather Koblovskiy

    Today, 26 April, Friday

    Time Temperature Precipitation Wind Pressure Humidity
    00:00 +17°C° 0 mm 2 mps 744 mmHg 48%
    01:00 +17°C° 0 mm 2 mps 744 mmHg 51%
    02:00 +16°C° 0 mm 2 mps 744 mmHg 54%
    03:00 +16°C° 0 mm 2 mps 744 mmHg 57%
    04:00 +15°C° 0 mm 2 mps 744 mmHg 59%
    05:00 +15°C° 0 mm 2 mps 744 mmHg 62%
    06:00 +14°C° 0 mm 1 mps 744 mmHg 65%
    07:00 +15°C° 0 mm 1 mps 744 mmHg 59%
    08:00 +18°C° 0 mm 1 mps 744 mmHg 54%
    09:00 +19°C° 0 mm 1 mps 744 mmHg 49%
    10:00 +19°C° 0 mm 2 mps 744 mmHg 45%
    11:00 +20°C° 0 mm 2 mps 744 mmHg 41%
    12:00 +21°C° 0 mm 2 mps 744 mmHg 37%
    13:00 +21°C° 0 mm 2 mps 744 mmHg 35%
    14:00 +21°C° 0 mm 2 mps 744 mmHg 33%
    15:00 +23°C° 0 mm 2 mps 744 mmHg 32%
    16:00 +21°C° 0 mm 2 mps 744 mmHg 33%
    17:00 +22°C° 0 mm 1 mps 743 mmHg 35%
    18:00 +22°C° 0 mm 1 mps 743 mmHg 36%
    19:00 +21°C° 0 mm 1 mps 743 mmHg 39%
    20:00 +19°C° 0 mm 1 mps 743 mmHg 42%
    21:00 +18°C° 0 mm 1 mps 743 mmHg 45%
    22:00 +16°C° 0 mm 1 mps 743 mmHg 47%
    23:00 +16°C° 0 mm 1 mps 743 mmHg 49%

    Tomorrow, 27 April, Saturday

    Time Temperature Precipitation Wind Pressure Humidity
    00:00 +15°C° 0 mm 1 mps 743 mmHg 51%
    01:00 +15°C° 0 mm 1 mps 742 mmHg 53%
    02:00 +14°C° 0 mm 1 mps 742 mmHg 56%
    03:00 +14°C° 0 mm 1 mps 742 mmHg 58%
    04:00 +14°C° 0.1 mm 2 mps 742 mmHg 61%
    05:00 +14°C° 0.1 mm 2 mps 741 mmHg 63%
    06:00 +13°C° 0.1 mm 2 mps 741 mmHg 66%
    07:00 +15°C° 0 mm 2 mps 741 mmHg 60%
    08:00 +17°C° 0 mm 2 mps 741 mmHg 54%
    09:00 +18°C° 0 mm 2 mps 741 mmHg 49%
    10:00 +20°C° 0 mm 3 mps 740 mmHg 44%
    11:00 +21°C° 0 mm 3 mps 740 mmHg 38%
    12:00 +22°C° 0 mm 4 mps 740 mmHg 33%
    13:00 +22°C° 0 mm 4 mps 739 mmHg 36%
    14:00 +21°C° 0 mm 4 mps 739 mmHg 38%
    15:00 +21°C° 0 mm 4 mps 738 mmHg 41%
    16:00 +21°C° 0 mm 4 mps 738 mmHg 43%
    17:00 +20°C° 0 mm 3 mps 737 mmHg 45%
    18:00 +20°C° 0 mm 3 mps 737 mmHg 47%
    19:00 +19°C° 0 mm 3 mps 737 mmHg 52%
    20:00 +18°C° 0 mm 3 mps 736 mmHg 56%
    21:00 +16°C° 0 mm 3 mps 736 mmHg 60%
    22:00 +16°C° 0 mm 3 mps 736 mmHg 65%
    23:00 +14°C° 0 mm 3 mps 735 mmHg 70%

    Day after tomorrow, 28 April, Sunday

    Time Temperature Precipitation Wind Pressure Humidity
    00:00 +13°C° 0 mm 3 mps 735 mmHg 74%
    01:00 +13°C° 0.1 mm 3 mps 734 mmHg 78%
    02:00 +12°C° 0.1 mm 3 mps 734 mmHg 81%
    03:00 +12°C° 0.1 mm 4 mps 734 mmHg 85%
    04:00 +12°C° 0.3 mm 4 mps 733 mmHg 85%
    05:00 +12°C° 0.3 mm 4 mps 733 mmHg 86%
    06:00 +12°C° 0.3 mm 4 mps 733 mmHg 86%
    07:00 +12°C° 0.5 mm 4 mps 733 mmHg 86%
    08:00 +12°C° 0.5 mm 4 mps 733 mmHg 85%
    09:00 +13°C° 0.5 mm 5 mps 734 mmHg 85%
    10:00 +10°C° 0 mm 5 mps 734 mmHg 83%
    11:00 +9°C° 0 mm 6 mps 735 mmHg 81%
    12:00 +8°C° 0 mm 7 mps 735 mmHg 79%
    13:00 +9°C° 0 mm 7 mps 736 mmHg 73%
    14:00 +10°C° 0 mm 6 mps 736 mmHg 67%
    15:00 +10°C° 0 mm 6 mps 737 mmHg 61%
    16:00 +10°C° 0 mm 6 mps 737 mmHg 56%
    17:00 +10°C° 0 mm 6 mps 737 mmHg 52%
    18:00 +9°C° 0 mm 6 mps 738 mmHg 48%
    19:00 +8°C° 0 mm 6 mps 739 mmHg 50%
    20:00 +7°C° 0 mm 6 mps 739 mmHg 52%
    21:00 +4°C° 0 mm 6 mps 740 mmHg 55%
    22:00 +3°C° 0 mm 6 mps 741 mmHg 56%
    23:00 +2°C° 0 mm 6 mps 741 mmHg 57%

    29 April, Monday

    Time Temperature Precipitation Wind Pressure Humidity
    00:00 +2°C° 0 mm 5 mps 742 mmHg 58%
    01:00 +1°C° 0 mm 5 mps 742 mmHg 61%
    02:00 0°C° 0 mm 4 mps 742 mmHg 63%
    03:00 0°C° 0 mm 4 mps 742 mmHg 65%
    04:00 -1°C° 0 mm 4 mps 743 mmHg 67%
    05:00 -1°C° 0 mm 4 mps 743 mmHg 68%
    06:00 -1°C° 0 mm 5 mps 743 mmHg 70%
    07:00 0°C° 0 mm 5 mps 743 mmHg 66%
    08:00 +1°C° 0 mm 5 mps 743 mmHg 63%
    09:00 +2°C° 0 mm 5 mps 744 mmHg 59%
    10:00 +5°C° 0 mm 5 mps 744 mmHg 56%
    11:00 +6°C° 0 mm 5 mps 744 mmHg 53%
    12:00 +7°C° 0 mm 5 mps 744 mmHg 49%
    13:00 +7°C° 0 mm 5 mps 744 mmHg 48%
    14:00 +7°C° 0 mm 5 mps 743 mmHg 46%
    15:00 +8°C° 0 mm 5 mps 743 mmHg 44%
    16:00 +8°C° 0 mm 4 mps 743 mmHg 44%
    17:00 +7°C° 0 mm 4 mps 743 mmHg 44%
    18:00 +7°C° 0 mm 4 mps 743 mmHg 43%
    19:00 +7°C° 0 mm 3 mps 743 mmHg 46%
    20:00 +5°C° 0 mm 3 mps 743 mmHg 49%
    21:00 +4°C° 0 mm 3 mps 743 mmHg 53%
    22:00 +3°C° 0 mm 3 mps 743 mmHg 54%
    23:00 +3°C° 0 mm 2 mps 743 mmHg 56%

    30 April, Tuesday

    Time Temperature Precipitation Wind Pressure Humidity
    00:00 +3°C° 0 mm 2 mps 743 mmHg 57%
    01:00 +2°C° 0 mm 2 mps 743 mmHg 59%
    02:00 +2°C° 0 mm 2 mps 743 mmHg 60%
    03:00 +1°C° 0 mm 2 mps 743 mmHg 61%
    04:00 +1°C° 0 mm 2 mps 743 mmHg 61%
    05:00 +1°C° 0 mm 2 mps 743 mmHg 61%
    06:00 +1°C° 0 mm 2 mps 743 mmHg 61%
    07:00 +3°C° 0 mm 2 mps 742 mmHg 57%
    08:00 +5°C° 0 mm 2 mps 742 mmHg 53%
    09:00 +5°C° 0 mm 3 mps 742 mmHg 49%
    10:00 +7°C° 0 mm 3 mps 742 mmHg 46%
    11:00 +8°C° 0 mm 3 mps 741 mmHg 43%
    12:00 +9°C° 0 mm 3 mps 741 mmHg 40%
    13:00 +9°C° 0 mm 3 mps 740 mmHg 40%
    14:00 +10°C° 0 mm 3 mps 740 mmHg 40%
    15:00 +10°C° 0 mm 2 mps 739 mmHg 40%
    16:00 +10°C° 0 mm 2 mps 739 mmHg 41%
    17:00 +9°C° 0 mm 2 mps 738 mmHg 43%
    18:00 +9°C° 0 mm 2 mps 738 mmHg 44%
    19:00 +9°C° 0 mm 2 mps 738 mmHg 46%
    20:00 +8°C° 0 mm 2 mps 738 mmHg 47%
    21:00 +8°C° 0 mm 2 mps 738 mmHg 48%
    22:00 +7°C° 0 mm 2 mps 737 mmHg 49%
    23:00 +7°C° 0 mm 2 mps 737 mmHg 50%

    1 May, Wednesday

    Time Temperature Precipitation Wind Pressure Humidity
    00:00 +7°C° 0 mm 2 mps 737 mmHg 50%
    01:00 +7°C° 0 mm 2 mps 737 mmHg 51%
    02:00 +6°C° 0 mm 2 mps 736 mmHg 52%
    03:00 +6°C° 0 mm 2 mps 736 mmHg 54%
    04:00 +6°C° 0 mm 2 mps 736 mmHg 56%
    05:00 +5°C° 0 mm 2 mps 735 mmHg 59%
    06:00 +5°C° 0 mm 2 mps 735 mmHg 62%
    07:00 +5°C° 0 mm 3 mps 735 mmHg 59%
    08:00 +7°C° 0 mm 3 mps 735 mmHg 56%
    09:00 +7°C° 0 mm 4 mps 735 mmHg 54%
    10:00 +8°C° 0.1 mm 4 mps 735 mmHg 52%
    11:00 +8°C° 0.1 mm 4 mps 734 mmHg 50%
    12:00 +10°C° 0.1 mm 4 mps 734 mmHg 48%
    13:00 +10°C° 0.1 mm 4 mps 734 mmHg 48%
    14:00 +9°C° 0.1 mm 5 mps 734 mmHg 48%
    15:00 +9°C° 0.1 mm 5 mps 733 mmHg 47%
    16:00 +9°C° 0.1 mm 5 mps 733 mmHg 49%
    17:00 +9°C° 0.1 mm 5 mps 733 mmHg 50%
    18:00 +8°C° 0.1 mm 5 mps 733 mmHg 52%
    19:00 +7°C° 0 mm 4 mps 732 mmHg 57%
    20:00 +7°C° 0 mm 3 mps 732 mmHg 61%
    21:00 +5°C° 0 mm 3 mps 732 mmHg 66%
    22:00 +4°C° 0 mm 3 mps 731 mmHg 67%
    23:00 +4°C° 0 mm 3 mps 731 mmHg 68%
    Show more